| time (UTC) | temp C | wind direction | speed KPH | gust KPH | rain 1hr cm | rain 24hr cm | rain mn cm | humidity % | barometer mb |
| 20260509064510 | 10 | 228 | 0.0 | 4.8 | 0.00 | 0.00 | 0.00 | 92 | 1003.5 |
| 20260509063005 | 11 | 238 | 1.6 | 8.0 | 0.00 | 0.00 | 0.00 | 92 | 1003.8 |
| 20260509061509 | 11 | 210 | 1.6 | 8.0 | 0.00 | 0.00 | 0.00 | 92 | 1004.0 |
| 20260509054604 | 11 | 231 | 1.6 | 8.0 | 0.00 | 0.00 | 0.00 | 92 | 1004.3 |
| 20260509053107 | 11 | 254 | 3.2 | 8.0 | 0.00 | 0.00 | 0.00 | 91 | 1004.4 |
| 20260509051603 | 11 | 224 | 0.0 | 6.4 | 0.00 | 0.00 | 0.00 | 91 | 1004.4 |
| 20260509050104 | 11 | 225 | 0.0 | 4.8 | 0.00 | 0.00 | 0.00 | 91 | 1004.6 |
| 20260509044557 | 11 | 224 | 1.6 | 6.4 | 0.00 | 0.00 | 0.00 | 90 | 1004.5 |
| 20260509043054 | 11 | 227 | 0.0 | 4.8 | 0.00 | 0.00 | 0.00 | 89 | 1004.5 |
| 20260509041554 | 12 | 227 | 0.0 | 1.6 | 0.00 | 0.00 | 0.00 | 89 | 1004.6 |
| 20260509040052 | 12 | 227 | 0.0 | 1.6 | 0.00 | 0.00 | 0.00 | 88 | 1004.7 |
| 20260509034549 | 12 | 228 | 0.0 | 4.8 | 0.00 | 0.00 | 0.00 | 87 | 1004.9 |
| 20260509033049 | 12 | 227 | 0.0 | 4.8 | 0.00 | 0.00 | 0.00 | 86 | 1004.9 |
| 20260509031546 | 12 | 226 | 0.0 | 6.4 | 0.00 | 0.00 | 0.00 | 85 | 1004.9 |
| 20260509030046 | 13 | 227 | 0.0 | 8.0 | 0.00 | 0.00 | 0.00 | 83 | 1005.0 |
| 20260509024545 | 13 | 230 | 1.6 | 9.7 | 0.00 | 0.00 | 0.00 | 81 | 1005.2 |
| 20260509023045 | 13 | 237 | 3.2 | 12.9 | 0.00 | 0.00 | 0.00 | 79 | 1005.3 |
| 20260509021545 | 13 | 249 | 4.8 | 12.9 | 0.00 | 0.00 | 0.00 | 78 | 1005.3 |
| 20260509020045 | 13 | 230 | 1.6 | 8.0 | 0.00 | 0.00 | 0.00 | 77 | 1005.1 |
| 20260509014546 | 13 | 245 | 3.2 | 14.5 | 0.00 | 0.00 | 0.00 | 76 | 1005.0 |
| 20260509013051 | 14 | 359 | 3.2 | 14.5 | 0.00 | 0.00 | 0.00 | 77 | 1005.0 |
| 20260509011544 | 14 | 247 | 6.4 | 12.9 | 0.00 | 0.00 | 0.00 | 79 | 1004.9 |
| 20260509010042 | 14 | 359 | 3.2 | 11.3 | 0.00 | 0.00 | 0.00 | 79 | 1004.7 |
| 20260509004542 | 15 | 192 | 1.6 | 9.7 | 0.00 | 0.00 | 0.00 | 77 | 1004.5 |
| 20260509003041 | 15 | 359 | 8.0 | 19.3 | 0.00 | 0.00 | 0.00 | 74 | 1004.5 |
| 20260509001541 | 15 | 258 | 4.8 | 11.3 | 0.00 | 0.00 | 0.00 | 71 | 1004.4 |
| 20260509000039 | 15 | 258 | 3.2 | 11.3 | 0.00 | 0.00 | 0.00 | 72 | 1004.6 |
| 20260508234539 | 15 | 246 | 6.4 | 12.9 | 0.00 | 0.00 | 0.00 | 72 | 1004.5 |
| 20260508233047 | 15 | 359 | 4.8 | 17.7 | 0.00 | 0.00 | 0.00 | 72 | 1004.6 |
| 20260508231538 | 16 | 359 | 9.7 | 19.3 | 0.00 | 0.00 | 0.00 | 71 | 1004.7 |
| 20260508230032 | 16 | 261 | 8.0 | 25.7 | 0.00 | 0.00 | 0.00 | 72 | 1004.8 |
| 20260508224531 | 16 | 359 | 8.0 | 17.7 | 0.00 | 0.00 | 0.00 | 71 | 1004.8 |
| 20260508223033 | 15 | 256 | 4.8 | 24.1 | 0.00 | 0.00 | 0.00 | 72 | 1005.0 |
| 20260508221531 | 15 | 279 | 12.9 | 25.7 | 0.00 | 0.00 | 0.00 | 72 | 1004.9 |
| 20260508220034 | 15 | 359 | 14.5 | 27.4 | 0.00 | 0.00 | 0.00 | 71 | 1004.8 |
| 20260508214530 | 15 | 359 | 11.3 | 25.7 | 0.00 | 0.00 | 0.00 | 72 | 1004.8 |
| 20260508213033 | 15 | 243 | 4.8 | 9.7 | 0.00 | 0.00 | 0.00 | 72 | 1004.8 |
| 20260508211533 | 15 | 233 | 4.8 | 11.3 | 0.00 | 0.00 | 0.00 | 71 | 1005.0 |
| 20260508210026 | 15 | 204 | 3.2 | 12.9 | 0.00 | 0.00 | 0.00 | 71 | 1005.2 |
| 20260508204524 | 15 | 275 | 4.8 | 14.5 | 0.00 | 0.00 | 0.00 | 70 | 1005.1 |
| 20260508203022 | 16 | 178 | 1.6 | 8.0 | 0.00 | 0.00 | 0.00 | 70 | 1005.4 |
| 20260508201521 | 16 | 143 | 4.8 | 9.7 | 0.00 | 0.00 | 0.00 | 69 | 1005.6 |
| 20260508200024 | 16 | 129 | 0.0 | 12.9 | 0.00 | 0.00 | 0.00 | 69 | 1005.9 |
| 20260508194518 | 16 | 221 | 3.2 | 6.4 | 0.00 | 0.00 | 0.00 | 68 | 1006.0 |
| 20260508193012 | 15 | 143 | 3.2 | 12.9 | 0.00 | 0.00 | 0.00 | 71 | 1006.2 |
| 20260508191509 | 15 | 189 | 1.6 | 12.9 | 0.00 | 0.00 | 0.00 | 74 | 1006.6 |
| 20260508190007 | 14 | 116 | 1.6 | 8.0 | 0.00 | 0.00 | 0.00 | 77 | 1006.8 |
| 20260508184506 | 13 | 133 | 0.0 | 8.0 | 0.00 | 0.00 | 0.00 | 80 | 1007.1 |
| 20260508183105 | 13 | 173 | 0.0 | 4.8 | 0.00 | 0.00 | 0.00 | 82 | 1007.3 |
| 20260508181557 | 13 | 210 | 1.6 | 6.4 | 0.00 | 0.00 | 0.00 | 82 | 1007.7 |
| 20260508180056 | 13 | 171 | 3.2 | 8.0 | 0.00 | 0.00 | 0.00 | 82 | 1007.9 |
| 20260508174605 | 12 | 206 | 3.2 | 8.0 | 0.00 | 0.00 | 0.00 | 82 | 1008.1 |
| 20260508173049 | 12 | 240 | 1.6 | 4.8 | 0.00 | 0.00 | 0.00 | 82 | 1008.1 |
| 20260508171547 | 12 | 240 | 0.0 | 3.2 | 0.00 | 0.00 | 0.00 | 83 | 1008.4 |
| 20260508170050 | 12 | 241 | 1.6 | 4.8 | 0.00 | 0.00 | 0.00 | 83 | 1008.6 |
| 20260508164545 | 12 | 249 | 1.6 | 8.0 | 0.00 | 0.00 | 0.00 | 84 | 1008.8 |
| 20260508163040 | 12 | 257 | 1.6 | 11.3 | 0.00 | 0.00 | 0.00 | 83 | 1008.9 |
| 20260508161545 | 12 | 242 | 3.2 | 11.3 | 0.00 | 0.00 | 0.00 | 83 | 1009.1 |
| 20260508160043 | 12 | 269 | 6.4 | 11.3 | 0.00 | 0.00 | 0.00 | 82 | 1009.3 |
| 20260508154543 | 12 | 241 | 3.2 | 8.0 | 0.00 | 0.00 | 0.00 | 84 | 1009.2 |
| 20260508153036 | 11 | 261 | 8.0 | 16.1 | 0.00 | 0.00 | 0.00 | 84 | 1009.3 |
| 20260508151535 | 11 | 273 | 3.2 | 12.9 | 0.00 | 0.00 | 0.00 | 86 | 1009.1 |
| 20260508150033 | 11 | 264 | 4.8 | 12.9 | 0.00 | 0.00 | 0.00 | 88 | 1009.0 |
| 20260508144530 | 11 | 241 | 8.0 | 16.1 | 0.00 | 0.00 | 0.00 | 90 | 1009.1 |
| 20260508143034 | 10 | 268 | 3.2 | 12.9 | 0.00 | 0.00 | 0.00 | 92 | 1009.4 |
| 20260508141525 | 10 | 249 | 6.4 | 11.3 | 0.00 | 0.00 | 0.00 | 92 | 1009.3 |
| 20260508140033 | 9 | 232 | 3.2 | 8.0 | 0.00 | 0.00 | 0.00 | 92 | 1009.6 |
| 20260508134520 | 9 | 239 | 1.6 | 9.7 | 0.00 | 0.00 | 0.00 | 92 | 1009.7 |
| 20260508133016 | 9 | 244 | 6.4 | 14.5 | 0.00 | 0.00 | 0.00 | 91 | 1010.0 |
| 20260508131514 | 9 | 359 | 4.8 | 12.9 | 0.00 | 0.00 | 0.00 | 91 | 1010.0 |
| 20260508130013 | 8 | 228 | 4.8 | 8.0 | 0.00 | 0.00 | 0.00 | 91 | 1009.8 |
| 20260508124523 | 8 | 239 | 1.6 | 8.0 | 0.00 | 0.00 | 0.00 | 91 | 1009.6 |
| 20260508123019 | 8 | 239 | 3.2 | 6.4 | 0.00 | 0.00 | 0.00 | 91 | 1009.7 |
| 20260508121507 | 8 | 248 | 3.2 | 6.4 | 0.00 | 0.00 | 0.00 | 91 | 1009.4 |
| 20260508120005 | 8 | 359 | 3.2 | 11.3 | 0.00 | 0.00 | 0.00 | 91 | 1009.5 |
| 20260508114503 | 8 | 230 | 4.8 | 9.7 | 0.00 | 0.00 | 0.00 | 92 | 1009.6 |
| 20260508113106 | 7 | 242 | 1.6 | 6.4 | 0.00 | 0.00 | 0.00 | 92 | 1009.3 |
| 20260508111610 | 7 | 251 | 3.2 | 6.4 | 0.00 | 0.00 | 0.00 | 92 | 1009.3 |
| 20260508110059 | 7 | 252 | 0.0 | 4.8 | 0.00 | 0.00 | 0.00 | 91 | 1009.2 |
| 20260508104604 | 7 | 251 | 0.0 | 3.2 | 0.00 | 0.00 | 0.00 | 91 | 1009.3 |
| 20260508103056 | 7 | 251 | 0.0 | 3.2 | 0.00 | 0.00 | 0.00 | 91 | 1009.2 |
| 20260508101554 | 7 | 251 | 1.6 | 4.8 | 0.00 | 0.00 | 0.00 | 91 | 1009.2 |
| 20260508100054 | 7 | 251 | 1.6 | 6.4 | 0.00 | 0.00 | 0.00 | 90 | 1009.3 |
| 20260508094554 | 7 | 228 | 1.6 | 6.4 | 0.00 | 0.00 | 0.00 | 90 | 1009.1 |
| 20260508093056 | 7 | 239 | 3.2 | 6.4 | 0.00 | 0.00 | 0.00 | 90 | 1009.1 |
| 20260508091559 | 7 | 250 | 3.2 | 11.3 | 0.00 | 0.00 | 0.00 | 91 | 1009.1 |
| 20260508090059 | 7 | 359 | 4.8 | 9.7 | 0.00 | 0.00 | 0.00 | 91 | 1009.3 |
| 20260508084547 | 7 | 359 | 4.8 | 11.3 | 0.00 | 0.00 | 0.00 | 92 | 1009.4 |
| 20260508083045 | 7 | 248 | 3.2 | 8.0 | 0.00 | 0.00 | 0.00 | 92 | 1009.4 |
| 20260508081552 | 7 | 263 | 3.2 | 8.0 | 0.00 | 0.00 | 0.00 | 92 | 1009.4 |
| 20260508080049 | 7 | 246 | 4.8 | 8.0 | 0.00 | 0.00 | 0.00 | 92 | 1009.4 |
| 20260508074542 | 7 | 359 | 3.2 | 9.7 | 0.00 | 0.00 | 0.00 | 92 | 1009.3 |
| 20260508073045 | 7 | 256 | 4.8 | 11.3 | 0.00 | 0.00 | 0.00 | 92 | 1009.3 |
| 20260508071553 | 7 | 359 | 3.2 | 8.0 | 0.00 | 0.00 | 0.00 | 93 | 1009.3 |
| 20260508070051 | 6 | 226 | 0.0 | 3.2 | 0.00 | 0.00 | 0.00 | 93 | 1009.3 |